Location: Passo di Treia
(43.2833°N, 13.3333°E)
Time: 16:46:36
(UTC+00:00)

SL-4 R/B - Pass Details

Date: 09 December 2019
Orbit: 428 x 667 km, 51.6° (Epoch: 27 January)

Event Time Altitude Azimuth Distance (km) Brightness Sun altitude
Rises 17:13:05 0° 280° (W) 2,529 6.6 -17.9°
Reaches altitude 10° 17:15:25 10° 293° (WNW) 1,691 5.2 -18.3°
Maximum altitude 17:18:41 26° 352° (N) 1,047 3.3 -18.9°
Enters shadow 17:19:26 24° 11° (N) 1,102 3.3 -19.0°
